DMSP 5D-2 F13 DEB, 40469

Orbit data source: Space-Track

DMSP 5D-2 F13 DEB, 40469 is space debris in SSO originally from a launch on Fri, 24 Mar 1995 UTC launched from the Air Force Western Test Range (AFWTR). Debris objects in space refer to the collection of defunct objects orbiting the Earth. Examples of debris include non-operational satellites, rocket bodies, and fragments generated from explosions, collisions, or faulty payload assembly.

Loading next visibility...
Identifier
40469, 1995-015BM
Orbit
SSO
Country
Flag of USUS
Related business
Manufacturer
Unknown
Mission
Spacecraft
Bus & Motor
Unknown
Mass
Unknown
Launch date (UTC)
1995-03-24 (31 years ago)
Launch vehicle
Unknown
Launch site
Air Force Western Test Range (AFWTR)
Object type
Payload
Rocket body
Debris
Shape & HBR
Unknown shape, 0.1 m
Radar Cross Section
Small (<0.1 m²)

Expand to show TLE details & history
Last TLE update: 4 days ago

TLE from 4 days ago
0 DMSP 5D-2 F13 DEB
1 40469U 95015BM  25335.38625743  .00013112  00000-0  29894-2 0  9991
2 40469  98.5802  32.1051 0020601 342.9528  17.0974 14.55813843560473
Epoch: 2025-12-01T09:16Z
TLE epoch observation values (Epoch: 2025-12-01T09:16:12.641Z)
Latitude
-0.00008°
Longitude
-177.43406°
Altitude
695.74 km
Speed
7.516 km/s
True Right ascension
02h 08m 25s
True Declination
0° 00' 00"
Sunlit
Object was in full shadow at epoch
Visualization orbit readout
Latitude
Unknown
Longitude
Unknown
Altitude
Unknown
Speed
Unknown
Apparent Right ascension
Unknown
Apparent Declination
Unknown
Sunlit
N/A
Visualization observer readout
Local Sidereal Time
07:20:17
Azimuth
Unknown
Elevation
Unknown
Doppler factor
Unknown
Orbital elements
Apogee altitude
718.417 km
Perigee altitude
689.238 km
Semi-major axis
7,081.965 km
Eccentricity
0.00206
Inclination
98.5802°
RAAN
32.1051°
Arg. of periapsis
342.9528°
True anomaly
17.16698°
Mean anomaly
17.0974°
Eccentric anomaly
17.13217°
Mean motion
3.64177 °/min
Orbital period
98.85 mins
BSTAR
0.0029894
Loading maneuver chart data...
Computing Atmospheric mass density...

Documentation

Showing up to 5 results
|